Regional Weather Roundup
Issued by NWS

Home | Current Version | Previous Version | Text Only | Print | Product List | Glossary On
Versions: 1 2 3 4 5 6 7 8 9 10 11 12 13 14 15 16 17 18 19 20 21 22 23 24 25 26 27 28 29 30 31 32 33 34 35 36 37 38 39 40 41 42 43 44 45 46 47 48 49 50
000
ASUS43 KDTX 292210
RWRMI
MICHIGAN HOURLY REGIONAL WEATHER ROUNDUP
NATIONAL WEATHER SERVICE DETROIT/PONTIAC MI
600 PM EDT WED MAR 29 2017

NOTE: "FAIR" INDICATES FEW OR NO CLOUDS BELOW 12,000 FEET WITH NO
SIGNIFICANT WEATHER AND/OR OBSTRUCTION TO VISIBILITY.

MIZ047>049-052>055-059>063-066>070-074>076-081>083-292300-
SOUTHEAST LOWER MICHIGAN

CITY           SKY/WX    TMP DP  RH WIND       PRES   REMARKS
ADRIAN         MOSUNNY   51  35  54 SE12      30.22F
ALMA           CLOUDY    44  32  63 NE16      30.28F
ANN ARBOR      CLOUDY    54  32  43 E9        30.21F
BAD AXE        CLOUDY    37  30  75 N12       30.33R WCI  30
CARO           CLOUDY    43  34  71 N14       30.29F
DETROIT CITY   MOSUNNY   53  33  46 VRB7      30.24S
DETROIT        CLOUDY    54  33  45 SE9       30.24F
FLINT          MOSUNNY   48  38  68 N14       30.26F
GROSSE ILE     PTSUNNY   47  32  56 S5        30.24S
HILLSDALE      CLOUDY    50  32  50 E9        30.18F
HOWELL         MOSUNNY   50  33  52 NE10G16   30.22F

CITY           SKY/WX    TMP DP  RH WIND       PRES   REMARKS
JACKSON        CLOUDY    53  31  42 NE10      30.20F
LAMBERTVILLE   CLOUDY    51  29  41 E7        30.23F
LANSING        CLOUDY    49  31  49 NE15      30.24F
LAPEER         FAIR      47  34  59 NE8       30.28S
MASON          CLOUDY    50  38  63 NE10G18   30.23S
MONROE         MOSUNNY   49  30  47 E7        30.23F
MT. CLEMENS    CLOUDY    50  35  56 NE15      30.25R
PONTIAC        CLOUDY    54  32  43 NE13      30.21F
PORT HOPE        N/A     37  31  78 N3        30.33R
PORT HURON     MOSUNNY   41  32  70 N9        30.30R
TRI CITIES     CLOUDY    39  34  82 NE16      30.31F WCI  30
MIDLAND        FAIR      39  31  72 E12       30.31F WCI  32
TROY           CLOUDY    55  29  36 E7        30.25F
SAGINAW HB     CLOUDY    39  32  75 N15       30.30F WCI  31
$$
MIZ043>046-050>051-056>058-064>065-071>073-077>080-292300-
SOUTHWEST LOWER MICHIGAN

CITY           SKY/WX    TMP DP  RH WIND       PRES   REMARKS
BATTLE CREEK   CLOUDY    52  33  48 NE12      30.20F
BENTON HARBOR  CLOUDY    54  32  43 E8        30.18S
BIG RAPIDS     CLOUDY    51  23  32 E8        30.22F
COLDWATER      MOSUNNY   53  31  43 E12       30.18F
FREMONT        FAIR      53  23  31 E7        30.20F
HOLLAND        CLOUDY    53  33  46 E10       30.22F
GRAND RAPIDS   CLOUDY    52  36  54 E13       30.21F
IONIA          FAIR      49  33  54 E12       30.23F
KALAMAZOO      CLOUDY    54  30  40 E8        30.20F
LUDINGTON      CLOUDY    47  33  58 N6        30.22F
MARSHALL       PTSUNNY   53  33  47 NE6       30.20F
MOUNT PLEASANT CLOUDY    43  31  62 E9        30.28F
MUSKEGON       CLOUDY    54  29  38 E9        30.21F
SOUTH HAVEN    CLOUDY    53  32  44 E8        30.19S
$$
MIZ016>042-292300-
NORTHERN LOWER MICHIGAN

CITY           SKY/WX    TMP DP  RH WIND       PRES   REMARKS
ALPENA         CLOUDY    37  23  56 SE7       30.37S WCI  32
BEAVER ISLAND  CLOUDY    38  25  60 E10       30.33F WCI  31
BELLAIRE       CLOUDY    48  28  45 NE6       30.28F
CADILLAC       CLOUDY    48  28  44 E8        30.23F
CHARLEVOIX     CLOUDY    42  30  63 NE8       30.33F
FRANKFORT      MOSUNNY   40  31  71 N9        30.26F WCI  34
GAYLORD        CLOUDY    46  26  45 E3        30.29F
GRAYLING       CLOUDY    46  28  49 E10       30.28F
HARBOR SPRINGS PTSUNNY   40  26  56 NE9       30.32F WCI  35
HOUGHTON LAKE  CLOUDY    47  31  53 E10       30.27F
MANISTEE       CLOUDY    46  36  68 W3        30.24F
OSCODA         CLOUDY    37  26  64 NE8       30.36S WCI  31
PELLSTON       CLOUDY    41  22  46 E10       30.34F
ROGERS CITY    CLOUDY    37  27  65 E5        30.37S WCI  34
TRAVERSE CITY  CLOUDY    40  31  70 N7        30.27F
$$
MIZ007>008-015-292300-
EASTERN UPPER MICHIGAN

CITY           SKY/WX    TMP DP  RH WIND       PRES   REMARKS
KINROSS        PTSUNNY   41  20  43 S7        30.35S
MACKINAC ISLAN CLOUDY    37  22  55 E3        30.35S
NEWBERRY       CLOUDY    38  26  59 S7        30.34S WCI  33
S. S. MARIE    PTSUNNY   44  21  40 S7        30.34S
MUNISING         N/A     33  28  81 NE5       30.33F WCI  29
$$
MIZ004>006-011>014-085-292300-
CENTRAL UPPER MICHIGAN

CITY           SKY/WX    TMP DP  RH WIND       PRES   REMARKS
MANISTIQUE     CLOUDY    37  28  68 E6        30.33F WCI  33
ESCANABA       PTSUNNY   37  29  72 SE7       30.32F WCI  32
MENOMINEE      CLOUDY    39  26  59 E8        30.29F WCI  33
SAWYER-GWINN   SUNNY     32  25  74 NE9       30.31F WCI  24
$$
MIZ001>003-009>011-084-292300-
WESTERN UPPER MICHIGAN

CITY           SKY/WX    TMP DP  RH WIND       PRES   REMARKS
IRON MOUNTAIN  CLOUDY    45  25  45 E5        30.25F
HOUGHTON       PTSUNNY   33  25  72 E14       30.29F WCI  23
COPPER HARBOR    N/A     35  26  69 VRB6      30.33F WCI  30
IRONWOOD       CLOUDY    49  30  48 E7        30.21F
$$

ABBREVIATIONS USED IN REMARKS
   TC - TEMPERATURE IN CELSIUS
  WCI - WIND CHILL INDEX
   HX - HEAT INDEX
  VSB - VISIBILITY




USA.gov is the U.S. government's official web portal to all federal, state and local government web resources and services.